This demonstration page uses our WeatherBlox Daily Observations layout. Learn more.

41.55636, -103.73856

Hourly Observations for April 17, 2019

Temp ( °F °C ) Dew Point ( °F °C ) Humidity (%) Winds ( mph kmh ) Pressure ( in mb ) Visibility ( mi km ) Precip ( " mm )
12:53 am 00:53 Mostly Cloudy 50 10 45 7.2 83 83 W 9 15 29.68 1005 10 16.09344 0 0
1:53 am 01:53 Cloudy 49 9.4 45 7.2 86 86 NW 6 9 29.68 1005 10 16.09344 0 0
2:53 am 02:53 Mostly Clear 48 8.9 44 6.7 86 86 W 13 20 29.74 1007 10 16.09344 0 0
3:53 am 03:53 Mostly Cloudy 48 8.9 40 4.4 74 74 NNW 16 26 29.74 1007 10 16.09344 0 0
4:53 am 04:53 Mostly Cloudy 47 8.3 40 4.4 77 77 WNW 17 28 29.77 1008 10 16.09344 0 0
5:53 am 05:53 Cloudy 47 8.3 40 4.4 77 77 NW 18 30 29.8 1009 10 16.09344 0 0
6:53 am 06:53 Cloudy 46 7.8 39 3.9 77 77 WNW 12 19 29.83 1010 10 16.09344 0 0
7:53 am 07:53 Sunny 48 8.9 37 2.8 66 66 WNW 16 26 29.85 1011 10 16.09344 0 0
8:53 am 08:53 Sunny 53 11.7 34 1.1 48 48 NW 23 37 29.85 1011 10 16.09344 0 0
9:53 am 09:53 Sunny 53 11.7 30 -1.1 41 41 NNW 26 43 29.88 1012 10 16.09344 0 0
10:53 am 10:53 Sunny 56 13.3 28 -2.2 34 34 NNW 24 39 29.88 1012 10 16.09344 0 0
11:53 am 11:53 Sunny 59 15 28 -2.2 31 31 NNW 23 37 29.88 1012 10 16.09344 0 0
12:53 pm 12:53 Sunny 62 16.7 29 -1.7 29 29 NW 20 31 29.85 1011 10 16.09344 0 0
1:53 pm 13:53 Mostly Sunny 62 16.7 29 -1.7 29 29 NNW 17 28 29.83 1010 10 16.09344 0 0
2:53 pm 14:53 Mostly Sunny 64 17.8 29 -1.7 27 27 WNW 18 30 29.83 1010 10 16.09344 0 0
3:53 pm 15:53 Mostly Sunny 62 16.7 29 -1.7 29 29 NNW 18 30 29.83 1010 10 16.09344 0 0
4:53 pm 16:53 Mostly Cloudy 63 17.2 29 -1.7 28 28 N 18 30 29.8 1009 10 16.09344 0 0
5:53 pm 17:53 Mostly Cloudy 59 15 29 -1.7 32 32 N 17 28 29.83 1010 10 16.09344 0 0
6:53 pm 18:53 Cloudy 57 13.9 30 -1.1 36 36 N 16 26 29.85 1011 10 16.09344 0 0
7:53 pm 19:53 Cloudy 53 11.7 34 1.1 48 48 NW 8 13 29.88 1012 10 16.09344 0.001 0.001
8:53 pm 20:53 Cloudy 53 11.7 32 0 45 45 NNW 12 19 29.94 1014 10 16.09344 0 0
9:53 pm 21:53 Mostly Cloudy 47 8.3 39 3.9 74 74 W 6 9 29.97 1015 10 16.09344 0.001 0.001
10:53 pm 22:53 Clear 42 5.6 38 3.3 85 85 WNW 3 6 29.97 1015 10 16.09344 0 0
11:53 pm 23:53 Clear 39 3.9 36 2.2 89 89 WNW 8 13 30 1016 10 16.09344 0 0

Powered by AerisWeather